Date String (YYYY-MM-DD hh:mm:ss) UTC,Instrument flags,absolute air pressure of the measurement (hPa),sample flow rate (lpm),inlet stack bypass flow (lpm),air temperature of the measurement (°C),ambient temperature measured by the external sensor (°C),aerosol sample conditioner tube jacket temperature (°C),OPC LED temperature (°C),internal box temperature (°C),relative humidity of the measurement (%),span deviation,mass concentration of particles derived from Lorenz-Mie calculation of OPC scattering (μg/m³),mass concentration of particles derived from Lorenz-Mie calculation of OPC scattering (μg/m³),mass concentration of particles derived from Lorenz-Mie calculation of OPC scattering (μg/m³)
DateTimeUTC,F1_M11,P_M11,Q1_M11,Q2_M11,T1_M11,T2_M11,T3_M11,T4_M11,T5_M11,U1_M11,ZSPAN_M11,X0_M11,X2_M11,X1_M11
2024-01-31 13:00:00,SystemResetWarning,0831.2,5.00,000.00,021.7,020.8,000.0,030.0,023.0,11.2,0000.0,0005.33,0002.49,0002.03
2024-01-31 13:01:00,SystemResetWarning,0831.2,5.00,000.00,021.7,020.8,000.0,030.0,023.0,11.3,0000.0,0005.48,0002.68,0002.19
2024-01-31 13:02:00,SystemResetWarning,0831.1,5.00,000.00,021.7,020.8,000.0,030.0,023.1,11.4,0000.0,0006.05,0002.87,0002.37
2024-01-31 13:03:00,SystemResetWarning,0831.1,5.00,000.00,021.7,020.8,000.0,030.0,023.0,11.4,0000.0,0006.71,0003.06,0002.57
2024-01-31 13:04:00,SystemResetWarning,0831.1,5.00,000.00,021.7,020.8,000.0,030.0,023.0,11.3,0000.0,0007.15,0003.23,0002.77
2024-01-31 13:05:00,SystemResetWarning,0831.2,5.00,000.00,021.7,020.8,000.0,030.0,023.0,11.2,0000.0,0007.44,0003.37,0002.97
2024-01-31 13:06:00,SystemResetWarning,0831.2,5.00,000.00,021.7,020.8,000.0,030.0,023.0,11.2,0000.0,0007.74,0003.49,0003.14
2024-01-31 13:07:00,SystemResetWarning,0831.2,5.00,000.00,021.7,020.8,000.0,030.0,023.0,11.1,0000.0,0007.91,0003.61,0003.26
2024-01-31 13:08:00,SystemResetWarning,0831.2,5.00,000.00,021.7,020.8,000.0,030.0,023.0,11.1,0000.0,0007.86,0003.67,0003.33
2024-01-31 13:09:00,SystemResetWarning,0831.2,4.99,000.00,021.7,020.8,000.0,030.0,023.0,11.1,0000.0,0008.15,0003.72,0003.36
2024-01-31 13:10:00,SystemResetWarning,0831.2,5.00,000.00,021.6,020.8,000.0,030.0,023.0,11.1,0000.0,0008.09,0003.75,0003.40
2024-01-31 13:11:00,SystemResetWarning,0831.2,5.01,000.00,021.6,020.8,000.0,030.0,023.0,11.0,0000.0,0007.76,0003.74,0003.41
2024-01-31 13:12:00,SystemResetWarning,0831.2,5.00,000.00,021.6,020.8,000.0,030.0,023.0,11.0,0000.0,0007.76,0003.80,0003.45
2024-01-31 13:13:00,SystemResetWarning,0831.2,5.00,000.00,021.6,020.8,000.0,030.0,023.0,11.1,0000.0,0007.86,0003.84,0003.49
2024-01-31 13:14:00,SystemResetWarning,0831.2,4.99,000.00,021.6,020.7,000.0,030.0,023.0,11.1,0000.0,0007.69,0003.86,0003.50
2024-01-31 13:15:00,SystemResetWarning,0831.2,5.00,000.00,021.6,020.7,000.0,030.0,023.0,11.0,0000.0,0008.39,0003.87,0003.50
2024-01-31 13:16:00,SystemResetWarning,0831.2,5.00,000.00,021.6,020.7,000.0,030.0,023.0,11.0,0000.0,0008.36,0003.81,0003.47
2024-01-31 13:17:00,SystemResetWarning,0831.2,5.00,000.00,021.6,020.7,000.0,030.0,023.0,11.0,0000.0,0008.13,0003.74,0003.41
2024-01-31 13:18:00,SystemResetWarning,0831.2,5.00,000.00,021.6,020.7,000.0,030.0,023.0,10.9,0000.0,0007.79,0003.67,0003.34
2024-01-31 13:19:00,SystemResetWarning,0831.2,5.01,000.00,021.6,020.7,000.0,030.0,023.0,10.8,0000.0,0007.70,0003.64,0003.32
2024-01-31 13:20:00,SystemResetWarning,0831.2,5.01,000.00,021.6,020.7,000.0,030.0,023.0,10.9,0000.0,0007.70,0003.60,0003.30
2024-01-31 13:21:00,SystemResetWarning,0831.2,5.01,000.00,021.6,020.7,000.0,030.0,023.0,10.8,0000.0,0008.06,0003.58,0003.28
2024-01-31 13:22:00,SystemResetWarning,0831.2,5.00,000.00,021.6,020.7,000.0,030.0,023.0,10.5,0000.0,0008.02,0003.51,0003.21
2024-01-31 13:23:00,SystemResetWarning,0831.1,4.99,000.00,021.6,020.7,000.0,030.0,023.0,10.5,0000.0,0007.83,0003.38,0003.10
2024-01-31 13:24:00,SystemResetWarning,0831.1,4.99,000.00,021.6,020.7,000.0,030.0,023.0,10.5,0000.0,0007.93,0003.30,0002.98
2024-01-31 13:25:00,SystemResetWarning,0831.2,5.00,000.00,021.6,020.7,000.0,030.0,023.0,10.5,0000.0,0008.44,0003.26,0002.88
2024-01-31 13:26:00,SystemResetWarning,0831.1,5.00,000.00,021.6,020.7,000.0,030.0,023.0,10.3,0000.0,0008.42,0003.22,0002.82
2024-01-31 13:27:00,SystemResetWarning,0831.1,5.00,000.00,021.7,020.7,000.0,030.0,023.0,10.3,0000.0,0008.54,0003.22,0002.80
2024-01-31 13:28:00,SystemResetWarning,0831.1,5.00,000.00,021.6,020.7,000.0,030.0,023.0,10.4,0000.0,0008.58,0003.25,0002.84
2024-01-31 13:29:00,SystemResetWarning,0831.1,5.00,000.00,021.6,020.7,000.0,030.0,023.0,10.4,0000.0,0008.60,0003.28,0002.90
2024-01-31 13:30:00,SystemResetWarning,0831.1,5.00,000.00,021.6,020.6,000.0,030.0,023.0,10.2,0000.0,0008.79,0003.32,0002.95
2024-01-31 13:31:00,SystemResetWarning,0831.1,5.00,000.00,021.6,020.6,000.0,030.0,023.0,10.2,0000.0,0008.58,0003.35,0002.97
2024-01-31 13:32:00,SystemResetWarning,0831.1,5.01,000.00,021.6,020.6,000.0,029.9,023.0,10.4,0000.0,0008.23,0003.38,0003.01
2024-01-31 13:33:00,SystemResetWarning,0831.1,5.00,000.00,021.6,020.6,000.0,029.9,023.0,10.6,0000.0,0008.20,0003.43,0003.10
2024-01-31 13:34:00,SystemResetWarning,0831.2,5.00,000.00,021.6,020.5,000.0,029.9,022.9,10.7,0000.0,0008.30,0003.50,0003.16
2024-01-31 13:35:00,SystemResetWarning,0831.2,5.00,000.00,021.6,020.5,000.0,029.9,022.9,10.8,0000.0,0008.14,0003.55,0003.19
2024-01-31 13:36:00,SystemResetWarning,0831.2,4.99,000.00,021.6,020.5,000.0,029.9,022.9,10.6,0000.0,0007.43,0003.54,0003.20
2024-01-31 13:37:00,SystemResetWarning,0831.2,5.00,000.00,021.6,020.5,000.0,029.9,022.9,10.7,0000.0,0006.25,0003.52,0003.20
2024-01-31 13:38:00,SystemResetWarning,0831.2,5.00,000.00,021.6,020.5,000.0,029.9,022.9,10.7,0000.0,0005.89,0003.50,0003.16
2024-01-31 13:39:00,SystemResetWarning,0831.2,5.00,000.00,021.6,020.5,000.0,029.9,022.9,10.8,0000.0,0005.80,0003.44,0003.11
2024-01-31 13:40:00,SystemResetWarning,0831.2,5.00,000.00,021.6,020.5,000.0,029.9,022.9,10.9,0000.0,0005.64,0003.39,0003.05
2024-01-31 13:41:00,SystemResetWarning,0831.2,5.00,000.00,021.6,020.5,000.0,029.9,022.9,11.0,0000.0,0005.42,0003.35,0002.95
2024-01-31 13:42:00,SystemResetWarning,0831.2,5.01,000.00,021.6,020.5,000.0,029.9,022.9,11.0,0000.0,0006.49,0003.29,0002.88
2024-01-31 13:43:00,SystemResetWarning,0831.2,5.01,000.00,021.5,020.5,000.0,029.9,022.9,10.8,0000.0,0006.42,0003.25,0002.82
2024-01-31 13:44:00,SystemResetWarning,0831.2,5.01,000.00,021.6,020.5,000.0,029.9,022.9,10.6,0000.0,0006.45,0003.22,0002.75
2024-01-31 13:45:00,SystemResetWarning,0831.3,4.99,000.00,021.5,020.5,000.0,029.9,022.9,10.7,0000.0,0006.44,0003.19,0002.68
2024-01-31 13:46:00,SystemResetWarning,0831.3,4.99,000.00,021.5,020.5,000.0,029.9,022.9,10.9,0000.0,0006.39,0003.14,0002.62
2024-01-31 13:47:00,SystemResetWarning,0831.2,5.00,000.00,021.5,020.5,000.0,029.9,022.9,10.9,0000.0,0006.65,0003.13,0002.56
2024-01-31 13:48:00,SystemResetWarning,0831.3,5.00,000.00,021.5,020.5,000.0,029.9,022.9,10.8,0000.0,0006.55,0003.09,0002.49
2024-01-31 13:49:00,SystemResetWarning,0831.3,5.00,000.00,021.5,020.4,000.0,029.9,022.9,10.7,0000.0,0006.18,0002.96,0002.41
2024-01-31 13:50:00,SystemResetWarning,0831.3,5.01,000.00,021.5,020.4,000.0,029.9,022.9,10.6,0000.0,0005.93,0002.85,0002.32
2024-01-31 13:51:00,SystemResetWarning,0831.3,5.00,000.00,021.5,020.4,000.0,029.9,022.9,10.4,0000.0,0006.29,0002.79,0002.25
2024-01-31 13:52:00,SystemResetWarning,0831.3,5.00,000.00,021.5,020.4,000.0,029.9,022.8,10.6,0000.0,0006.27,0002.68,0002.19
2024-01-31 13:53:00,SystemResetWarning,0831.3,4.99,000.00,021.5,020.4,000.0,029.8,022.8,10.7,0000.0,0005.24,0002.57,0002.12
2024-01-31 13:54:00,SystemResetWarning,0831.2,4.99,000.00,021.5,020.4,000.0,029.8,022.8,10.8,0000.0,0004.64,0002.49,0002.04
2024-01-31 13:55:00,SystemResetWarning,0831.3,5.00,000.00,021.5,020.4,000.0,029.8,022.8,10.9,0000.0,0005.33,0002.41,0001.99
2024-01-31 13:56:00,SystemResetWarning,0831.3,5.01,000.00,021.5,020.4,000.0,029.8,022.8,11.0,0000.0,0006.14,0002.37,0001.94
2024-01-31 13:57:00,SystemResetWarning,0831.3,5.01,000.00,021.5,020.4,000.0,029.8,022.8,10.9,0000.0,0005.86,0002.22,0001.84
2024-01-31 13:58:00,SystemResetWarning,0831.3,5.00,000.00,021.5,020.4,000.0,029.8,022.8,10.9,0000.0,0005.31,0002.06,0001.74
2024-01-31 13:59:00,SystemResetWarning,0831.3,5.00,000.00,021.5,020.4,000.0,029.8,022.8,10.8,0000.0,0005.25,0002.03,0001.73
